Weather in Malinovoye Ozero

Russia / Altai Krai     51°40′29″N   79°46′57″E
temp.,
°C
wind,
m/s
gust,
m/s
humid.,
%
clouds,
%
prec.,
mm/h
press.,
hPa
HPBL,
m
16 september, thu
thu1601:00+15sse334080 0.0 101337
04:00+14se3439100 0.0 101173
07:00+14sse343998 0.0 101177
10:00+19sw362821 0.0 1010368
13:00+24wnw35178 0.0 10101596
16:00+26wnw461722 0.0 10082939
19:00+23w3422100 0.0 100881
22:00+18ssw222599 0.0 100913
17 september, fri
fri1701:00+16s34265 0.0 100854
04:00+15s312295 0.0 1006206
07:00+15s41233100 0.0 1005222
10:00+22ssw61122100 0.0 1004446
13:00+27ssw71317100 0.0 10022321
16:00+29wsw9131596 0.0 9993976
19:00+27sw61218100 0.0 9971201
22:00+25sw161924100 0.0 9962228
18 september, sat
sat1801:00+12w7127875 0.2 10031043
04:00+10wsw511791 0.0 1006600
07:00+9w49760 0.0 1008471
10:00+11w58465 0.0 1011880
13:00+14w68345 0.0 10111752
16:00+16w68327 0.0 10111953
19:00+14w56375 0.0 10121211
22:00+10sse22465 0.0 101212
19 september, sun
sun1901:00+9sse35515 0.0 101183
04:00+9sse3751100 0.0 1009149
07:00+9se3750100 0.0 1006127
10:00+14ssw4939100 0.0 1004463
13:00+18w810280 0.0 10051675
16:00+16w89315 0.0 10061965
19:00+13wnw6738100 0.0 10071603
22:00+7wnw22541 0.0 100921
20 september, mon
mon2001:00+7ssw365296 0.0 1010147
04:00+6wsw5105925 0.0 1011481
07:00+6wsw51155100 0.0 10131011
10:00+8w8114198 0.0 10151777
13:00+9w81042100 0.0 10161990
16:00+8w71045100 0.0 10181864
19:00+8w61059100 0.1 10191455
22:00+7w486298 0.2 1021923